Tracking 31027 objects as of 19-Jul-2025
HD Live streaming from Space Station
objects crossing your sky now

ALOS DEB

Track ALOS DEB now!
10-day predictions


NORAD ID: 35418
Int'l Code: 2006-002Z
Perigee: 628.8 km
Apogee: 630.4 km
Inclination: 98.2 °
Period: 97.2 minutes
Semi major axis: 7000 km
RCS: 0.0242 m2 (small)
Launch date: January 24, 2006
Source: Japan (JPN)
Launch site: TANEGASHIMA SPACE CENTER (TNSTA)

Note: This is SATELLITE DEBRIS
Your satellite tracking list
DEWASAT-2
Track 1 satellite(s)




NASA's NSSDC Master Catalog

Two Line Element Set (TLE):
1 35418U 06002Z   25199.44271248  .00003184  00000-0  40654-3 0  9995
2 35418  98.1594 174.0049 0001209 112.1743  19.1771 14.82177008984594
Source of the keplerian elements: AFSPC